St. Marys, AK

6:29 PM AKST on December 11, 2019 (GMT -0900)
Saint Mary's

Weather History for PASM - October, 2019

Change the Weather History Date:

Tuesday, October 1, 2019

  Actual Average Record
Temperature  
Mean Temperature 39 °F -  
Max Temperature 44 °F 39 °F 53 °F (2003)
Min Temperature 32 °F 30 °F 21 °F (2013)
Degree Days  
Heating Degree Days 26    
Moisture  
Dew Point 36 °F    
Average Humidity 95    
Maximum Humidity 100    
Minimum Humidity 71    
Precipitation  
Precipitation 0.00 in - - ()
Sea Level Pressure  
Sea Level Pressure 30.01 in    
Wind  
Wind Speed 2 mph ()    
Max Wind Speed 9 mph    
Max Gust Speed -    
Visibility 5.3 miles    
Events Fog , Rain    
Averages and records for this station are not official NWS values.
T = Trace of Precipitation, MM = Missing Value Source: Averaged Metar Reports

Daily Weather History Graph

Daily Weather History Graph

Search for Another Location

Airport or City:

Astronomy

Oct. 01, 2019 Rise Set
Actual Time 9:00 AM AKDT 8:23 PM AKDT
Civil Twilight 8:16 AM AKDT 9:07 PM AKDT
Nautical Twilight 7:23 AM AKDT 9:59 PM AKDT
Astronomical Twilight 6:28 AM AKDT 10:55 PM AKDT
Moon 1:29 PM AKDT (10/1) 9:40 PM AKDT (10/1)
Length of Visible Light 12h 51m
Length of Day
11h 23m
Waxing Crescent, 13% of the Moon is Illuminated
Oct 1
Waxing Crescent
Oct 5
First Quarter
Oct 13
Full
Oct 21
Last Quarter
Oct 27
New

Hourly Weather History & Observations

Time (AKDT) Temp. Windchill Dew Point Humidity Pressure Visibility Wind Dir Wind Speed Gust Speed Precip Events Conditions
12:02 AM 41.0 °F 39.0 °F 39.9 °F 96% 30.04 in 10.0 mi NNW 3.5 mph - 0.00 in   Overcast
12:25 AM 39.2 °F 37.0 °F 39.2 °F 100% 30.01 in 10.0 mi NW 3.5 mph - N/A   Mostly Cloudy
1:02 AM 37.4 °F - 37.4 °F 100% 30.01 in 2.5 mi Calm Calm - N/A   Partly Cloudy
1:09 AM 37.4 °F - 37.4 °F 100% 30.01 in 0.8 mi Calm Calm - N/A   Mist
1:16 AM 37.9 °F 33.5 °F 37.0 °F 97% 30.04 in 0.8 mi NW 5.8 mph - N/A   Mostly Cloudy
1:25 AM 37.4 °F 32.8 °F 37.4 °F 100% 30.01 in 1.2 mi NW 5.8 mph - N/A   Mostly Cloudy
1:31 AM 37.4 °F 32.1 °F 37.4 °F 100% 30.01 in 3.0 mi NNW 6.9 mph - N/A   Scattered Clouds
2:02 AM 36.0 °F 31.1 °F 36.0 °F 100% 30.04 in 10.0 mi North 5.8 mph - N/A   Clear
2:54 AM 33.8 °F - 33.8 °F 100% 30.01 in 1.8 mi Calm Calm - N/A   Partly Cloudy
2:57 AM 33.8 °F - 32.0 °F 93% 30.01 in 0.8 mi Calm Calm - N/A   Mist
3:02 AM 32.0 °F - 32.0 °F 100% 30.01 in 0.5 mi Calm Calm - N/A Fog Fog
3:31 AM 32.0 °F - 32.0 °F 100% 30.01 in 1.8 mi Calm Calm - N/A   Mostly Cloudy
3:38 AM 33.8 °F - 33.8 °F 100% 30.01 in 4.0 mi Calm Calm - N/A   Mostly Cloudy
3:46 AM 33.8 °F - 33.8 °F 100% 30.01 in 0.8 mi Calm Calm - N/A   Mostly Cloudy
3:53 AM 33.8 °F - 33.8 °F 100% 30.01 in 0.5 mi Calm Calm - N/A Fog Fog
4:02 AM 33.1 °F - 33.1 °F 100% 30.03 in 0.5 mi Calm Calm - N/A Fog Fog
4:09 AM 33.8 °F - 32.0 °F 93% 30.00 in 0.2 mi Calm Calm - N/A Fog Fog
4:25 AM 33.8 °F - 33.8 °F 100% 30.00 in 0.5 mi Calm Calm - N/A Fog Fog
4:36 AM 33.8 °F - 32.0 °F 93% 30.00 in 0.8 mi Calm Calm - N/A   Overcast
4:55 AM 33.8 °F - 33.8 °F 100% 30.00 in 0.5 mi Calm Calm - N/A Fog Fog
5:02 AM 34.0 °F 28.8 °F 34.0 °F 100% 30.03 in 0.5 mi WNW 5.8 mph - N/A Fog Fog
5:18 AM 33.8 °F 29.6 °F 33.8 °F 100% 30.00 in 0.2 mi WNW 4.6 mph - N/A Fog Fog
5:31 AM 33.8 °F - 32.0 °F 93% 30.00 in 0.8 mi Calm Calm - N/A   Overcast
5:41 AM 32.0 °F - 32.0 °F 100% 30.00 in 0.5 mi Calm Calm - N/A Fog Fog
5:47 AM 32.0 °F - 30.2 °F 93% 30.00 in 1.0 mi Calm Calm - N/A   Overcast
5:53 AM 32.0 °F 27.5 °F 32.0 °F 100% 30.00 in 2.5 mi WNW 4.6 mph - N/A   Overcast
6:00 AM 33.8 °F - 33.8 °F 100% 30.00 in 8.0 mi Calm Calm - N/A   Overcast
6:02 AM 33.1 °F - 33.1 °F 100% 30.03 in 10.0 mi Calm Calm - N/A   Overcast
7:02 AM 35.1 °F - 34.0 °F 96% 30.02 in 10.0 mi Calm Calm - N/A   Overcast
8:02 AM 35.1 °F 31.0 °F 35.1 °F 100% 30.03 in 10.0 mi West 4.6 mph - N/A   Overcast
9:02 AM 36.0 °F 32.1 °F 36.0 °F 100% 30.03 in 10.0 mi SSW 4.6 mph - N/A   Overcast
10:02 AM 37.9 °F - 37.0 °F 97% 30.02 in 10.0 mi Calm Calm - N/A   Overcast
11:02 AM 39.0 °F 34.0 °F 37.9 °F 96% 30.02 in 10.0 mi West 6.9 mph - N/A   Overcast
12:02 PM 41.0 °F - 39.0 °F 93% 30.01 in 10.0 mi Calm Calm - N/A   Overcast
1:02 PM 44.1 °F 40.8 °F 39.0 °F 82% 30.00 in 10.0 mi South 5.8 mph - N/A   Overcast
2:02 PM 44.1 °F 40.1 °F 39.9 °F 85% 30.00 in 10.0 mi SW 6.9 mph - N/A   Mostly Cloudy
3:02 PM 46.0 °F 41.4 °F 37.9 °F 73% 29.99 in 10.0 mi SW 9.2 mph - N/A   Mostly Cloudy
4:02 PM 46.0 °F 43.9 °F 37.0 °F 71% 29.99 in 10.0 mi WSW 4.6 mph - N/A   Overcast
5:02 PM 46.0 °F 42.5 °F 37.0 °F 71% 29.98 in 10.0 mi SW 6.9 mph - N/A   Overcast
7:02 PM 46.0 °F 43.1 °F 39.9 °F 79% 29.97 in 10.0 mi South 5.8 mph - N/A   Overcast
8:02 PM 45.0 °F 43.5 °F 41.0 °F 86% 29.97 in 10.0 mi South 3.5 mph - 0.00 in Rain Light Rain
9:02 PM 44.1 °F 40.8 °F 41.0 °F 89% 29.96 in 10.0 mi South 5.8 mph - 0.00 in Rain Light Rain
10:02 PM 43.0 °F 40.3 °F 41.0 °F 93% 29.96 in 10.0 mi SSE 4.6 mph - 0.00 in Rain Light Rain
11:02 PM 44.1 °F 40.8 °F 42.1 °F 93% 29.95 in 10.0 mi SSE 5.8 mph - 0.00 in   Overcast